1516496400.22,50881,2.94,71706.0,-14.15,-16.97,-15.75,0,*6A
1516496401.44,50882,2.94,71700.5,-14.15,-16.93,-15.71,0,*69
1516496402.66,50883,2.94,71698.3,-14.15,-16.89,-15.71,0,*63
1516496403.89,50884,2.94,71696.0,-14.15,-16.89,-15.71,0,*64
1516496405.13,50885,2.94,71696.5,-14.13,-16.79,-15.71,0,*6C
1516496406.36,50886,2.94,71700.3,-14.15,-16.75,-15.63,0,*66
1516496407.58,50887,2.94,71700.3,-14.15,-16.75,-15.63,0,*67
1516496408.83,50888,2.94,71704.8,-14.15,-16.65,-15.63,0,*69
1516496410.05,50889,2.94,71700.5,-14.15,-16.59,-15.63,0,*67
1516496411.33,50890,2.94,71706.0,-14.13,-16.51,-15.49,0,*69
1516496412.56,50891,2.94,71706.3,-14.15,-16.45,-15.49,0,*6B
1516496413.78,50892,2.94,71706.3,-14.15,-16.45,-15.49,0,*68
1516496415.03,50893,2.94,71700.0,-14.15,-16.45,-15.57,0,*66
1516496416.31,50894,2.94,71706.5,-14.13,-16.23,-15.49,0,*68
1516496417.56,50895,2.94,71702.8,-14.15,-16.23,-15.49,0,*6F
1516496418.84,50896,2.94,71710.5,-14.15,-16.17,-15.43,0,*61
1516496420.11,50897,2.94,71714.0,-14.15,-16.17,-15.43,0,*60
1516496421.36,50898,2.94,71714.8,-14.15,-16.03,-15.35,0,*6B
1516496422.61,50899,2.94,71712.8,-14.13,-16.03,-15.29,0,*61
1516496423.84,50900,2.94,71716.5,-14.15,-16.03,-15.29,0,*66
1516496425.06,50901,2.94,71720.8,-14.15,-15.99,-15.29,0,*67
1516496426.28,50902,2.94,71714.0,-14.15,-15.99,-15.29,0,*64
1516496427.54,50903,2.94,71718.8,-14.15,-15.89,-15.29,0,*64
1516496428.81,50904,2.94,71714.3,-14.15,-15.89,-15.21,0,*6B
1516496430.08,50905,2.94,71712.5,-14.13,-15.75,-15.21,0,*6F
1516496431.35,50906,2.94,71712.0,-14.13,-15.71,-15.21,0,*68
1516496432.59,50907,2.94,71714.8,-14.13,-15.63,-15.07,0,*6E
1516496433.81,50908,2.94,71710.5,-14.15,-15.63,-15.07,0,*67
1516496435.08,50909,2.94,71714.8,-14.13,-15.49,-15.21,0,*6C
1516496436.3,50910,2.94,71708.3,-14.15,-15.49,-15.15,0,*65
1516496437.57,50911,2.94,71700.3,-14.13,-15.57,-15.15,0,*6D
1516496438.84,50912,2.94,71714.0,-14.13,-15.35,-15.15,0,*6A
1516496440.11,50913,2.94,71710.5,-14.13,-15.43,-15.07,0,*69
1516496441.38,50914,2.94,71710.8,-14.13,-15.35,-15.07,0,*6F
1516496442.62,50915,2.94,71700.5,-14.13,-15.29,-15.07,0,*63
1516496443.84,50916,2.94,71704.0,-14.15,-15.29,-15.07,0,*66
1516496445.07,50917,2.94,71710.5,-14.15,-15.29,-15.15,0,*64
1516496446.33,50918,2.94,71708.3,-14.13,-15.21,-15.15,0,*65
1516496447.59,50919,2.94,71714.0,-14.13,-15.21,-15.15,0,*64
1516496448.86,50920,2.94,71716.8,-14.13,-15.21,-15.15,0,*6E
1516496450.09,50921,2.94,71718.3,-14.15,-15.21,-15.15,0,*69
1516496451.36,50922,2.94,71716.5,-14.13,-15.21,-15.07,0,*6F
1516496452.57,50923,2.94,71718.5,-14.15,-15.07,-15.15,0,*6F
1516496453.84,50924,2.94,71710.0,-14.13,-15.15,-15.21,0,*6A
1516496455.11,50925,2.94,71706.5,-14.13,-15.21,-15.07,0,*68
1516496456.37,50926,2.94,71706.3,-14.13,-15.21,-15.15,0,*68
1516496457.62,50927,2.94,71700.0,-14.13,-15.15,-15.15,0,*6E
1516496458.89,50928,2.94,71696.5,-14.13,-15.15,-15.21,0,*66
1516496460.14,50929,2.94,71706.5,-14.13,-15.15,-15.29,0,*6F
1516496461.38,50930,2.94,71706.8,-14.13,-15.15,-15.15,0,*68
1516496462.67,50931,2.94,71714.5,-14.13,-15.21,-15.21,0,*69
1516496463.94,50932,2.94,71710.0,-14.13,-15.21,-15.29,0,*62
1516496465.23,50933,2.88,71710.3,-14.13,-15.21,-15.21,0,*6B
1516496466.51,50934,2.94,71712.3,-14.13,-15.21,-15.21,0,*6C
1516496467.78,50935,2.94,71714.8,-14.13,-15.21,-15.15,0,*6A
1516496469.05,50936,2.94,71716.8,-14.13,-15.21,-15.29,0,*66
1516496470.33,50937,2.94,71714.0,-14.13,-15.21,-15.21,0,*6F
1516496471.61,50938,2.94,71714.8,-14.13,-15.29,-15.21,0,*68
1516496472.87,50939,2.94,71712.3,-14.13,-15.21,-15.15,0,*66
1516496474.13,50940,2.88,71712.0,-14.13,-15.21,-15.07,0,*6B
1516496475.37,50941,2.88,71716.0,-14.11,-15.15,-15.01,0,*69
1516496476.61,50942,2.88,71714.0,-14.11,-15.11,-15.01,0,*6E
1516496477.84,50943,2.94,71718.8,-14.11,-15.11,-15.01,0,*6F
1516496479.08,50944,2.94,71718.0,-14.11,-15.11,-15.01,0,*68
1516496480.34,50945,2.94,71722.3,-14.11,-15.01,-15.01,0,*68
1516496481.58,50946,2.94,71720.0,-14.13,-15.07,-15.07,0,*69
1516496482.83,50947,2.94,71722.3,-14.11,-15.01,-15.01,0,*6A
1516496484.12,50948,2.88,71716.5,-14.09,-15.01,-15.01,0,*6C
1516496485.35,50949,2.94,71716.8,-14.11,-15.11,-15.01,0,*65
1516496486.59,50950,2.94,71718.3,-14.11,-15.15,-15.01,0,*69
1516496487.85,50951,2.94,71720.5,-14.09,-15.11,-15.01,0,*65
1516496489.11,50952,2.94,71722.5,-14.11,-15.01,-15.01,0,*6E
1516496490.38,50953,2.88,71718.5,-14.09,-15.11,-14.97,0,*69
1516496491.67,50954,2.94,71720.8,-14.09,-15.01,-14.97,0,*6F
1516496492.9,50955,2.88,71720.0,-14.11,-15.11,-14.97,0,*66
1516496494.14,50956,2.94,71716.5,-14.11,-15.11,-14.97,0,*65
1516496495.38,50957,2.94,71718.3,-14.09,-15.11,-15.11,0,*62
1516496496.64,50958,2.94,71724.0,-14.11,-15.01,-15.01,0,*64
1516496497.9,50959,2.88,71720.8,-14.09,-15.11,-14.97,0,*63
1516496499.17,50960,2.94,71720.8,-14.11,-15.01,-14.97,0,*61
1516496500.45,50961,2.94,71716.5,-14.09,-15.01,-14.97,0,*69
1516496501.74,50962,2.94,71724.3,-14.09,-15.01,-14.97,0,*6A
1516496503.01,50963,2.88,71720.5,-14.09,-15.11,-14.97,0,*6A
1516496504.29,50964,2.94,71720.5,-14.09,-15.01,-14.97,0,*6C
1516496505.56,50965,2.94,71722.8,-14.09,-15.11,-14.97,0,*6C
1516496506.82,50966,2.88,71720.5,-14.11,-15.01,-14.93,0,*63
1516496508.11,50967,2.94,71722.8,-14.09,-15.01,-14.97,0,*6F
1516496509.37,50968,2.94,71724.3,-14.09,-15.11,-14.97,0,*61
1516496510.66,50969,2.94,71724.5,-14.09,-15.01,-14.97,0,*61
1516496511.95,50970,2.94,71724.5,-14.09,-15.01,-14.97,0,*69
1516496513.24,50971,2.94,71730.8,-14.09,-15.01,-14.97,0,*68
1516496514.52,50972,2.88,71728.3,-14.09,-15.01,-14.97,0,*6B
1516496515.81,50973,2.94,71730.8,-14.09,-15.01,-14.97,0,*6A
1516496517.07,50974,2.94,71728.0,-14.09,-15.11,-15.01,0,*62
1516496518.31,50975,2.94,71728.5,-14.09,-15.11,-15.11,0,*62
1516496519.56,50976,2.94,71726.3,-14.09,-15.15,-15.11,0,*65
1516496520.8,50977,2.94,71726.3,-14.09,-15.25,-15.11,0,*67
1516496522.05,50978,2.88,71720.8,-14.09,-15.25,-15.15,0,*6C
1516496523.27,50979,2.88,71722.8,-14.11,-15.25,-15.15,0,*64
1516496524.52,50980,2.94,71722.0,-14.09,-15.29,-15.25,0,*64
1516496525.8,50981,2.94,71722.5,-14.09,-15.39,-15.29,0,*68
1516496527.07,50982,2.94,71722.0,-14.09,-15.39,-15.25,0,*67
1516496528.35,50983,2.88,71716.8,-14.09,-15.39,-15.25,0,*66
1516496529.62,50984,2.94,71716.3,-14.09,-15.43,-15.15,0,*6F
1516496530.9,50985,2.94,71716.5,-14.09,-15.53,-15.39,0,*61
1516496532.17,50986,2.94,71716.5,-14.09,-15.43,-15.25,0,*6E
1516496533.42,50987,2.94,71712.8,-14.11,-15.67,-15.39,0,*6D
1516496534.69,50988,2.94,71712.0,-14.09,-15.67,-15.39,0,*6B
1516496535.94,50989,2.88,71710.5,-14.09,-15.71,-15.29,0,*6C
1516496537.19,50990,2.94,71712.3,-14.09,-15.67,-15.29,0,*63
1516496538.47,50991,2.94,71708.5,-14.09,-15.67,-15.39,0,*63
1516496539.72,50992,2.94,71712.5,-14.09,-15.67,-15.29,0,*61
1516496540.99,50993,2.94,71708.0,-14.09,-15.67,-15.39,0,*61
1516496542.24,50994,2.94,71710.8,-14.09,-15.71,-15.29,0,*60
1516496543.52,50995,2.88,71708.8,-14.09,-15.71,-15.39,0,*60
1516496544.79,50996,2.94,71714.5,-14.09,-15.71,-15.39,0,*63
1516496546.09,50997,2.94,71714.5,-14.09,-15.81,-15.39,0,*6D
1516496547.38,50998,2.88,71714.5,-14.09,-15.81,-15.43,0,*6F
1516496548.68,50999,2.94,71716.5,-14.09,-15.81,-15.39,0,*63
1516496549.98,51000,2.94,71712.8,-14.09,-15.81,-15.43,0,*66
1516496551.28,51001,2.94,71712.8,-14.09,-15.81,-15.39,0,*6A
1516496552.57,51002,2.94,71712.8,-14.09,-15.81,-15.43,0,*64
1516496553.87,51003,2.94,71718.0,-14.09,-15.81,-15.43,0,*65
1516496555.16,51004,2.94,71712.5,-14.09,-15.81,-15.39,0,*6F
1516496556.46,51005,2.88,71714.8,-14.09,-15.81,-15.39,0,*6E
1516496557.76,51006,2.94,71718.8,-14.09,-15.85,-15.39,0,*69
1516496559.03,51007,2.94,71714.0,-14.05,-15.75,-15.35,0,*67
1516496560.31,51008,2.94,71716.3,-14.05,-15.75,-15.39,0,*64
1516496561.59,51009,2.88,71712.5,-14.05,-15.75,-15.39,0,*65
1516496562.87,51010,2.88,71712.3,-14.05,-15.75,-15.39,0,*6D
1516496564.14,51011,2.88,71712.5,-14.09,-15.71,-15.43,0,*69
1516496565.43,51012,2.88,71712.0,-14.09,-15.81,-15.43,0,*65
1516496566.68,51013,2.94,71716.0,-14.11,-15.71,-15.43,0,*62
1516496567.98,51014,2.88,71712.3,-14.09,-15.81,-15.43,0,*63
1516496569.25,51015,2.94,71716.5,-14.09,-15.71,-15.39,0,*60
1516496570.55,51016,2.88,71712.5,-14.09,-15.57,-15.39,0,*67
1516496571.84,51017,2.94,71714.5,-14.09,-15.57,-15.39,0,*66
1516496573.09,51018,2.94,71714.0,-14.09,-15.53,-15.15,0,*63
1516496574.34,51019,2.88,71708.0,-14.05,-15.49,-15.25,0,*66
1516496575.63,51020,2.94,71714.5,-14.05,-15.39,-15.21,0,*6F
1516496576.93,51021,2.94,71712.3,-14.05,-15.39,-15.21,0,*6E
1516496578.2,51022,2.94,71714.0,-14.09,-15.39,-15.25,0,*65
1516496579.45,51023,2.88,71714.0,-14.09,-15.29,-15.11,0,*62
1516496580.7,51024,2.94,71718.8,-14.05,-15.25,-15.07,0,*62
1516496581.98,51025,2.88,71712.8,-14.05,-15.21,-14.97,0,*6F
1516496583.22,51026,2.94,71716.0,-14.05,-15.11,-15.07,0,*67
1516496584.49,51027,2.88,71714.8,-14.05,-15.07,-14.97,0,*69
1516496585.76,51028,2.88,71714.0,-14.05,-15.07,-14.97,0,*66
1516496587.03,51029,2.88,71716.0,-14.05,-15.07,-14.97,0,*67
1516496588.29,51030,2.94,71718.8,-14.05,-15.07,-14.93,0,*6B
1516496589.58,51031,2.88,71714.3,-14.05,-14.97,-14.93,0,*62
1516496590.87,51032,2.94,71722.0,-14.05,-14.97,-14.97,0,*65
1516496592.16,51033,2.88,71720.8,-14.05,-14.97,-14.97,0,*64
1516496593.45,51034,2.88,71716.5,-14.05,-14.97,-14.97,0,*63
1516496594.74,51035,2.88,71720.8,-14.05,-14.97,-14.97,0,*62
1516496596.01,51036,2.88,71722.0,-14.05,-15.07,-14.97,0,*69
1516496597.25,51037,2.88,71722.3,-14.05,-15.07,-15.07,0,*60
1516496598.51,51038,2.94,71724.3,-14.09,-15.15,-15.01,0,*66
1516496599.76,51039,2.94,71726.5,-14.05,-15.07,-15.07,0,*6E
1516496601.04,51040,2.88,71724.8,-14.05,-15.21,-14.97,0,*6C
1516496602.28,51041,2.94,71726.0,-14.05,-15.11,-15.07,0,*66
1516496603.52,51042,2.94,71726.3,-14.05,-15.11,-15.07,0,*65
1516496604.76,51043,2.94,71728.3,-14.05,-15.11,-15.07,0,*64
1516496606.02,51044,2.94,71724.5,-14.05,-15.21,-15.07,0,*60
1516496607.32,51045,2.94,71722.8,-14.05,-15.35,-15.21,0,*60
1516496608.58,51046,2.94,71720.0,-14.05,-15.21,-15.11,0,*65
1516496609.84,51047,2.94,71718.0,-14.05,-15.21,-15.07,0,*63
1516496611.09,51048,2.94,71714.0,-14.05,-15.25,-15.07,0,*68
1516496612.38,51049,2.94,71716.0,-14.05,-15.35,-15.21,0,*6C
1516496613.62,51050,2.94,71718.5,-14.05,-15.25,-15.11,0,*66
1516496614.89,51051,2.94,71716.3,-14.05,-15.25,-15.21,0,*64
1516496616.16,51052,2.94,71718.5,-14.05,-15.25,-15.21,0,*67
1516496617.44,51053,2.94,71722.0,-14.05,-15.35,-15.25,0,*63
1516496618.69,51054,2.88,71716.0,-14.05,-15.49,-15.25,0,*6F
1516496619.98,51055,2.88,71718.5,-14.05,-15.39,-15.35,0,*68
1516496621.26,51056,2.94,71720.0,-14.05,-15.49,-15.39,0,*60
1516496622.53,51057,2.88,71712.8,-14.05,-15.39,-15.49,0,*61
1516496623.79,51058,2.88,71720.5,-14.05,-15.53,-15.49,0,*62
1516496625.03,51059,2.88,71720.3,-14.05,-15.67,-15.63,0,*6C
1516496626.28,51060,2.94,71722.0,-14.05,-15.75,-15.75,0,*62
1516496627.55,51061,2.88,71718.8,-14.05,-15.81,-15.75,0,*68
1516496628.8,51062,2.88,71718.8,-14.05,-15.95,-15.75,0,*6E
1516496630.1,51063,2.88,71712.5,-14.05,-16.13,-15.89,0,*61
1516496631.37,51064,2.88,71708.3,-14.05,-16.27,-15.95,0,*6C
1516496632.67,51065,2.94,71718.5,-14.05,-16.27,-16.09,0,*6B
1516496633.96,51066,2.94,71716.3,-14.05,-16.51,-16.27,0,*65
1516496635.22,51067,2.94,71718.5,-14.05,-16.69,-16.37,0,*6E
1516496636.46,51068,2.94,71716.8,-14.09,-16.89,-16.45,0,*66
1516496637.74,51069,2.88,71712.5,-14.09,-17.17,-16.59,0,*6C
1516496638.99,51070,2.88,71708.5,-14.09,-17.35,-16.75,0,*6A
1516496640.27,51071,2.94,71704.5,-14.09,-17.59,-16.75,0,*61
1516496641.53,51072,2.94,71706.0,-14.09,-17.63,-16.83,0,*62
1516496642.8,51073,2.88,71708.8,-14.09,-17.63,-16.83,0,*63
1516496644.04,51074,2.94,71714.5,-14.09,-17.73,-16.83,0,*65
1516496645.3,51075,2.88,71714.5,-14.09,-17.63,-16.89,0,*6F
1516496646.56,51076,2.88,71710.5,-14.09,-17.63,-16.89,0,*6C
1516496647.79,51077,2.88,71708.8,-14.11,-17.63,-16.89,0,*64
1516496649.07,51078,2.88,71710.0,-14.09,-17.73,-17.07,0,*64
1516496650.34,51079,2.94,71722.0,-14.11,-17.79,-17.07,0,*66
1516496651.56,51080,2.88,71716.0,-14.11,-18.11,-17.35,0,*60
1516496652.8,51081,2.94,71710.3,-14.11,-18.21,-17.45,0,*65
1516496654.07,51082,2.94,71704.0,-14.11,-18.35,-17.59,0,*6E
1516496655.34,51083,2.94,71694.3,-14.09,-18.25,-17.45,0,*6A
1516496656.58,51084,2.88,71684.8,-14.11,-18.49,-17.59,0,*63
1516496657.82,51085,2.88,71682.5,-14.11,-18.55,-17.49,0,*6E
1516496659.07,51086,2.88,71668.5,-14.11,-18.49,-17.59,0,*61
1516496660.28,51087,2.94,71676.8,-14.11,-18.41,-17.49,0,*69
1516496661.5,51088,2.88,71682.5,-14.11,-18.11,-17.35,0,*68
1516496662.71,51089,2.88,71680.0,-14.11,-18.11,-17.31,0,*6D
1516496663.98,51090,2.88,71678.0,-14.13,-18.11,-17.25,0,*62
1516496665.26,51091,2.88,71678.8,-14.13,-17.97,-17.35,0,*63
1516496666.53,51092,2.88,71682.3,-14.13,-18.01,-17.35,0,*60
1516496667.8,51093,2.94,71684.5,-14.13,-18.11,-17.41,0,*63
1516496669.07,51094,2.94,71686.0,-14.13,-18.17,-17.41,0,*62
1516496670.32,51095,2.88,71690.5,-14.13,-18.25,-17.35,0,*61
1516496671.6,51096,2.88,71694.0,-14.13,-18.31,-17.49,0,*6C
1516496672.86,51097,2.94,71702.0,-14.13,-18.25,-17.41,0,*60
1516496674.13,51098,2.88,71698.5,-14.13,-18.45,-17.41,0,*69
1516496675.43,51099,2.94,71694.5,-14.13,-18.55,-17.41,0,*69
1516496676.67,51100,2.88,71698.3,-14.13,-18.45,-17.49,0,*61
1516496677.97,51101,2.88,71700.8,-14.13,-18.59,-17.41,0,*65
1516496679.23,51102,2.88,71700.8,-14.13,-18.59,-17.49,0,*6E
1516496680.5,51103,2.88,71698.5,-14.15,-18.59,-17.41,0,*61
1516496681.72,51104,2.88,71696.3,-14.15,-18.69,-17.49,0,*6D
1516496682.96,51105,2.88,71696.3,-14.13,-18.73,-17.49,0,*61
1516496684.23,51106,2.94,71712.0,-14.13,-18.69,-17.55,0,*64
1516496685.45,51107,2.94,71712.3,-14.15,-18.69,-17.49,0,*6E
1516496686.7,51108,2.88,71704.5,-14.15,-18.83,-17.63,0,*6D
1516496688.0,51109,2.88,71698.8,-14.13,-18.93,-17.63,0,*6B
1516496689.24,51110,2.88,71702.8,-14.15,-19.03,-17.55,0,*68
1516496690.51,51111,2.88,71700.5,-14.15,-18.93,-17.63,0,*64
1516496691.78,51112,2.88,71696.3,-14.13,-19.07,-17.63,0,*6D
1516496693.03,51113,2.88,71690.8,-14.15,-19.17,-17.55,0,*6E
1516496694.27,51114,2.88,71692.8,-14.15,-19.07,-17.55,0,*68
1516496695.52,51115,2.88,71696.0,-14.13,-19.03,-17.49,0,*66
1516496696.76,51116,2.88,71698.5,-14.15,-19.03,-17.55,0,*6E
1516496698.03,51117,2.88,71696.0,-14.17,-19.07,-17.59,0,*65
1516496699.34,51118,2.88,71704.0,-14.17,-19.23,-17.59,0,*6C
1516496700.61,51119,2.88,71702.0,-14.15,-19.31,-17.63,0,*65
1516496701.86,51120,2.94,71706.5,-14.15,-19.37,-17.63,0,*69
1516496703.13,51121,2.88,71704.0,-14.17,-19.41,-17.69,0,*61
1516496704.4,51122,2.94,71704.5,-14.17,-19.41,-17.69,0,*62
1516496705.7,51123,2.94,71706.0,-14.17,-19.41,-17.59,0,*60
1516496706.98,51124,2.88,71700.8,-14.17,-19.37,-17.59,0,*66
1516496708.23,51125,2.94,71708.3,-14.17,-19.37,-17.69,0,*64
1516496709.54,51126,2.88,71708.0,-14.17,-19.27,-17.45,0,*68
1516496710.85,51127,2.88,71710.0,-14.17,-19.27,-17.45,0,*69
1516496712.12,51128,2.88,71708.0,-14.17,-19.37,-17.41,0,*63
1516496713.43,51129,2.88,71702.5,-14.17,-19.27,-17.41,0,*63
1516496714.68,51130,2.88,71708.8,-14.17,-19.37,-17.31,0,*6D
1516496715.96,51131,2.88,71710.3,-14.17,-19.27,-17.31,0,*6D
1516496717.26,51132,2.88,71712.3,-14.17,-19.27,-17.25,0,*6B
1516496718.54,51133,2.88,71712.0,-14.17,-19.13,-17.17,0,*6C
1516496719.85,51134,2.88,71708.0,-14.21,-18.93,-17.11,0,*61
1516496721.15,51135,2.88,71706.3,-14.17,-18.93,-17.03,0,*66
1516496722.39,51136,2.94,71702.5,-14.17,-18.73,-16.93,0,*63
1516496723.64,51137,2.94,71696.5,-14.17,-18.45,-16.83,0,*66
1516496724.91,51138,2.88,71680.3,-14.17,-18.17,-16.65,0,*66
1516496726.18,51139,2.88,71676.0,-14.17,-17.87,-16.51,0,*66
1516496727.45,51140,2.88,71686.5,-14.17,-17.83,-16.51,0,*6C
1516496728.74,51141,2.88,71680.8,-14.17,-17.59,-16.51,0,*6A
1516496729.99,51142,2.88,71680.5,-14.21,-17.69,-16.55,0,*6B
1516496731.24,51143,2.88,71690.0,-14.17,-17.73,-16.55,0,*64
1516496732.49,51144,2.94,71684.3,-14.21,-17.87,-16.55,0,*6D
1516496733.77,51145,2.88,71666.8,-14.21,-18.01,-16.55,0,*6D
1516496735.04,51146,2.94,71668.0,-14.17,-18.07,-16.51,0,*69
1516496736.33,51147,2.88,71672.8,-14.17,-18.01,-16.51,0,*6E
1516496737.61,51148,2.88,71666.0,-14.21,-17.83,-16.27,0,*60
1516496738.88,51149,2.88,71664.5,-14.17,-17.73,-16.13,0,*6C
1516496740.18,51150,2.94,71666.8,-14.17,-17.45,-16.09,0,*6A
1516496741.47,51151,2.88,71662.3,-14.21,-17.17,-15.95,0,*6F
1516496742.75,51152,2.94,71662.0,-14.21,-17.03,-15.95,0,*69
1516496744.02,51153,2.88,71660.8,-14.17,-16.83,-15.89,0,*69
1516496745.3,51154,2.88,71670.3,-14.21,-16.79,-15.81,0,*66
1516496746.58,51155,2.88,71682.0,-14.21,-16.69,-15.75,0,*6D
1516496747.87,51156,2.88,71678.8,-14.21,-16.55,-15.81,0,*6A
1516496749.09,51157,2.94,71678.5,-14.15,-16.45,-15.71,0,*62
1516496750.34,51158,2.94,71674.0,-14.21,-16.41,-15.67,0,*69
1516496751.61,51159,2.88,71672.8,-14.17,-16.27,-15.63,0,*69
1516496752.88,51160,2.94,71678.3,-14.17,-16.23,-15.63,0,*67
1516496754.16,51161,2.88,71680.0,-14.21,-16.23,-15.63,0,*63
1516496755.43,51162,2.88,71682.3,-14.17,-16.23,-15.63,0,*65
1516496756.71,51163,2.88,71682.3,-14.21,-16.09,-15.67,0,*6D
1516496757.95,51164,2.88,71684.0,-14.15,-16.03,-15.57,0,*64
1516496759.23,51165,2.88,71684.0,-14.17,-16.09,-15.63,0,*6A
1516496760.47,51166,2.88,71684.8,-14.17,-16.03,-15.63,0,*63
1516496761.73,51167,2.88,71686.8,-14.15,-15.89,-15.49,0,*69
1516496762.97,51168,2.88,71692.3,-14.17,-16.03,-15.63,0,*6D
1516496764.2,51169,2.88,71694.3,-14.15,-15.99,-15.49,0,*66
1516496765.45,51170,2.94,71682.3,-14.17,-15.95,-15.53,0,*6B
1516496766.72,51171,2.88,71670.3,-14.17,-16.09,-15.63,0,*6F
1516496767.97,51172,2.88,71672.5,-14.17,-16.03,-15.67,0,*62
1516496769.27,51173,2.88,71672.0,-14.17,-16.13,-15.89,0,*62
1516496770.57,51174,2.88,71678.0,-14.21,-16.23,-15.89,0,*63
1516496771.85,51175,2.88,71676.0,-14.21,-16.41,-15.89,0,*66
1516496773.12,51176,2.88,71678.8,-14.17,-16.51,-15.95,0,*6C
1516496774.37,51177,2.88,71692.3,-14.17,-16.55,-16.03,0,*65
1516496775.67,51178,2.88,71696.3,-14.17,-16.69,-16.13,0,*64
1516496776.95,51179,2.88,71702.8,-14.21,-16.79,-16.27,0,*66
1516496778.22,51180,2.88,71706.3,-14.17,-16.83,-16.27,0,*60
1516496779.47,51181,2.88,71702.3,-14.17,-16.97,-16.41,0,*64
1516496780.74,51182,2.88,71710.8,-14.21,-17.03,-16.37,0,*6F
1516496782.01,51183,2.88,71692.8,-14.17,-17.25,-16.37,0,*6F
1516496783.28,51184,2.94,71682.3,-14.17,-17.25,-16.41,0,*69
1516496784.56,51185,2.88,71690.8,-14.17,-17.41,-16.41,0,*6A
1516496785.84,51186,2.88,71696.3,-14.17,-17.41,-16.41,0,*69
1516496787.08,51187,2.88,71702.0,-14.15,-17.41,-16.45,0,*6E
1516496788.37,51188,2.88,71706.0,-14.17,-17.55,-16.51,0,*63
1516496789.64,51189,2.88,71704.3,-14.17,-17.69,-16.51,0,*6D
1516496790.91,51190,2.88,71688.5,-14.17,-17.69,-16.69,0,*6E
1516496792.18,51191,2.88,71688.3,-14.17,-17.83,-16.69,0,*6B
1516496793.46,51192,2.88,71716.3,-14.17,-17.83,-16.69,0,*68
1516496794.73,51193,2.88,71718.0,-14.17,-18.01,-16.83,0,*68
1516496795.98,51194,2.88,71710.8,-14.17,-18.07,-16.79,0,*6C
1516496797.23,51195,2.94,71700.3,-14.17,-18.17,-16.83,0,*69
1516496798.48,51196,2.88,71696.8,-14.21,-18.21,-16.83,0,*6A
1516496799.73,51197,2.88,71710.5,-14.17,-18.17,-16.79,0,*6E
1516496801.0,51198,2.88,71714.5,-14.17,-18.31,-16.83,0,*60
1516496802.25,51199,2.88,71714.5,-14.17,-18.17,-16.83,0,*65
1516496803.53,51200,2.88,71714.5,-14.17,-18.31,-16.83,0,*62
1516496804.78,51201,2.88,71708.8,-14.17,-18.21,-16.79,0,*67
1516496806.03,51202,2.88,71712.5,-14.17,-18.17,-16.83,0,*64
1516496807.27,51203,2.88,71710.8,-14.17,-18.21,-16.83,0,*60
1516496808.55,51204,2.88,71716.5,-14.17,-18.31,-16.83,0,*66
1516496809.83,51205,2.88,71714.8,-14.17,-18.31,-16.83,0,*67
1516496811.08,51206,2.88,71704.5,-14.17,-18.21,-16.79,0,*60
1516496812.32,51207,2.88,71692.3,-14.17,-18.17,-16.79,0,*64
1516496813.57,51208,2.88,71696.8,-14.17,-18.21,-16.79,0,*6E
1516496814.85,51209,2.88,71696.8,-14.17,-18.31,-16.83,0,*6B
1516496816.1,51210,2.88,71692.0,-14.17,-18.17,-16.79,0,*62
1516496817.35,51211,2.88,71702.3,-14.17,-18.07,-16.79,0,*62
1516496818.62,51212,2.88,71696.8,-14.15,-18.01,-16.65,0,*68
1516496819.92,51213,2.88,71700.0,-14.17,-17.97,-16.65,0,*6B
1516496821.17,51214,2.88,71702.0,-14.17,-17.87,-16.55,0,*6E
1516496822.42,51215,2.88,71708.5,-14.17,-17.83,-16.55,0,*6B
1516496823.68,51216,2.88,71714.8,-14.17,-17.73,-16.51,0,*63
1516496824.93,51217,2.88,71716.0,-14.17,-17.73,-16.55,0,*66
1516496826.17,51218,2.88,71718.5,-14.17,-17.73,-16.55,0,*69
1516496827.44,51219,2.88,71714.0,-14.17,-17.73,-16.51,0,*6C
1516496828.68,51220,2.88,71716.8,-14.17,-17.73,-16.41,0,*67
1516496829.95,51221,2.88,71714.0,-14.17,-17.69,-16.51,0,*6C
1516496831.22,51222,2.88,71718.8,-14.21,-17.59,-16.37,0,*69
1516496832.47,51223,2.88,71716.3,-14.15,-17.49,-16.31,0,*68
1516496833.77,51224,2.94,71720.0,-14.17,-17.45,-16.27,0,*66
1516496835.06,51225,2.88,71718.0,-14.17,-17.55,-16.27,0,*66
1516496836.36,51226,2.88,71716.8,-14.17,-17.55,-16.27,0,*65
1516496837.65,51227,2.88,71712.3,-14.17,-17.59,-16.23,0,*6C
1516496838.95,51228,2.88,71708.0,-14.17,-17.55,-16.27,0,*6B
1516496840.24,51229,2.88,71716.3,-14.17,-17.55,-16.23,0,*6E
1516496841.54,51230,2.88,71714.5,-14.17,-17.45,-16.23,0,*67
1516496842.84,51231,2.88,71714.3,-14.17,-17.45,-16.13,0,*65
1516496844.14,51232,2.88,71716.8,-14.17,-17.45,-16.13,0,*66
1516496845.45,51233,2.88,71712.3,-14.17,-17.41,-16.13,0,*63
1516496846.72,51234,2.88,71714.0,-14.21,-17.31,-16.09,0,*6D
1516496848.03,51235,2.88,71712.3,-14.17,-17.45,-16.09,0,*6A
1516496849.3,51236,2.88,71712.8,-14.17,-17.45,-16.03,0,*63
1516496850.55,51237,2.88,71712.8,-14.17,-17.31,-16.03,0,*61
1516496851.79,51238,2.88,71712.3,-14.17,-17.31,-15.95,0,*62
1516496853.07,51239,2.88,71714.0,-14.17,-17.25,-15.95,0,*66
1516496854.34,51240,2.88,71710.8,-14.17,-17.25,-15.95,0,*68
1516496855.62,51241,2.88,71710.8,-14.17,-17.25,-15.95,0,*69
1516496856.9,51242,2.88,71710.3,-14.17,-17.17,-15.95,0,*6B
1516496858.18,51243,2.88,71708.5,-14.17,-17.17,-15.95,0,*6A
1516496859.48,51244,2.88,71716.3,-14.17,-17.03,-15.89,0,*65
1516496860.74,51245,2.88,71720.5,-14.17,-16.93,-15.89,0,*6C
1516496861.97,51246,2.88,71720.8,-14.15,-16.89,-15.75,0,*65
1516496863.21,51247,2.88,71720.3,-14.17,-16.93,-15.75,0,*6D
1516496864.46,51248,2.88,71710.0,-14.17,-16.97,-15.67,0,*65
1516496865.68,51249,2.88,71694.0,-14.15,-16.89,-15.71,0,*6E
1516496866.9,51250,2.88,71692.5,-14.15,-16.89,-15.71,0,*66
1516496868.15,51251,2.88,71694.3,-14.17,-16.93,-15.75,0,*6A
1516496869.39,51252,2.88,71698.0,-14.15,-16.79,-15.57,0,*6F
1516496870.64,51253,2.88,71692.8,-14.15,-16.79,-15.57,0,*6E
1516496871.87,51254,2.88,71690.5,-14.15,-16.75,-15.49,0,*6A
1516496873.1,51255,2.88,71694.5,-14.15,-16.59,-15.49,0,*65
1516496874.36,51256,2.88,71694.5,-14.17,-16.55,-15.49,0,*68
1516496875.63,51257,2.88,71694.8,-14.15,-16.51,-15.43,0,*65
1516496876.89,51258,2.88,71694.0,-14.15,-16.37,-15.43,0,*6A
1516496878.15,51259,2.88,71694.5,-14.15,-16.31,-15.35,0,*6C
1516496879.45,51260,2.88,71692.3,-14.17,-16.23,-15.39,0,*6B
1516496880.76,51261,2.88,71694.0,-14.17,-16.13,-15.39,0,*69
1516496881.99,51262,2.88,71696.0,-14.15,-16.03,-15.29,0,*68
1516496883.21,51263,2.88,71690.0,-14.15,-15.99,-15.29,0,*69
1516496884.43,51264,2.88,71688.5,-14.15,-15.99,-15.29,0,*6E
1516496885.7,51265,2.88,71696.5,-14.17,-15.95,-15.35,0,*6C
1516496886.94,51266,2.88,71692.5,-14.15,-15.99,-15.21,0,*64
1516496888.16,51267,2.88,71692.8,-14.15,-15.99,-15.29,0,*6D
1516496889.43,51268,2.88,71688.8,-14.15,-15.89,-15.35,0,*6E
1516496890.69,51269,2.88,71694.0,-14.17,-16.03,-15.49,0,*67
1516496891.96,51270,2.88,71698.5,-14.15,-15.89,-15.21,0,*62
1516496893.23,51271,2.88,71700.8,-14.15,-15.89,-15.35,0,*66
1516496894.51,51272,2.88,71696.0,-14.15,-15.85,-15.43,0,*68
1516496895.78,51273,2.88,71704.8,-14.15,-15.85,-15.43,0,*69
1516496897.05,51274,2.88,71696.8,-14.15,-15.85,-15.35,0,*6F
1516496898.32,51275,2.88,71702.8,-14.15,-15.85,-15.35,0,*6E
1516496899.6,51276,2.88,71702.3,-14.17,-15.89,-15.53,0,*63
1516496900.88,51277,2.88,71698.3,-14.17,-15.89,-15.53,0,*62
1516496902.15,51278,2.88,71694.0,-14.17,-15.89,-15.63,0,*6E
1516496903.4,51279,2.88,71700.8,-14.17,-15.95,-15.67,0,*66
1516496904.63,51280,2.88,71706.3,-14.13,-15.99,-15.63,0,*6C